Weather Roundup
Issued by NWS

Home | Current Version | Previous Version | Text Only | Print | Product List | Glossary On
Versions: 1 2 3 4 5 6 7 8 9 10 11 12 13 14 15 16 17 18 19 20 21 22 23 24 25 26 27 28 29 30 31 32 33 34 35 36 37 38 39 40 41 42 43 44 45 46 47 48 49 50
000
NZUS93 KARX 210459
HRRWXR

CURRENT HOURLY OBSERVATIONS ACROSS
MUCH OF THE UPPER MISSISSIPPI VALLEY
NATIONAL WEATHER SERVICE LA CROSSE WI
1100 PM CST FRI JAN 20 2017


...SOUTHEAST MINNESOTA...


CITY           SKY/WX    TMP DP  RH WIND       PRES   REMARKS
ROCHESTER      FOG       33  33 100 SE10      29.54S VSB 1/4 WCI  25
ROCHESTER/MAYO CLOUDY    35  35 100 E6        29.54F VSB 1/4 WCI  30
WINONA         FOG       34  34 100 SE5       29.59S VSB 3/4 WCI  30
AUSTIN         FOG       34  32  93 SE6       29.53S VSB 1/2 WCI  29
ALBERT LEA     FOG       36  36 100 SE8       29.51F VSB 1/4 WCI  29
DODGE CENTER   FOG       34  34 100 SE10      29.53S VSB 1/2 WCI  26
PRESTON        FOG       33  32  97 E3        29.54F VSB 1/4
OWATONNA       CLOUDY    36  34  93 SE8       29.52S FOG     WCI  29
FARIBAULT        N/A     36  34  93 E5        29.53S FOG     WCI  32
$$

...ELSEWHERE IN MINNESOTA...


CITY           SKY/WX    TMP DP  RH WIND       PRES   REMARKS
MINNEAPOLIS    CLOUDY    35  34  96 E8        29.54F FOG     WCI  29
INTNL FALLS    LGT SNOW  33  32  96 SE8       29.54F FOG     WCI  26
DULUTH         DRZL/FOG  34  34 100 SE12      29.57R VSB 1/16WCI  25
RED WING       CLOUDY    36  34  93 SE7       29.56S FOG     WCI  30
REDWOOD FALLS  FOG       34  33  96 SE9       29.47F VSB 1   WCI  27
MANKATO        CLOUDY    34  33  96 SE10      29.51S FOG     WCI  26
WORTHINGTON    FOG       34  34 100 SE9       29.45F VSB 1/2 WCI  27
FAIRMONT       FOG       34  33  96 SE9       29.49F VSB 1/2 WCI  27
$$

...SOUTHWEST WISCONSIN...


CITY           SKY/WX    TMP DP  RH WIND       PRES   REMARKS
LA CROSSE      CLOUDY    39  36  89 E6        29.58F WCI  35
PRAIRIE DU CHI CLOUDY    37  36  96 CALM      29.58F FOG
BOSCOBEL       LGT RAIN  37  36  96 VRB3      29.59F VSB 1/2
LONE ROCK      NOT AVBL
PLATTEVILLE    CLOUDY    36  36 100 E8        29.58F VSB 1/4 WCI  30
FORT MC COY    CLOUDY    34  34 100 E3        29.61F FOG
CAMP DOUGLAS   FOG       34  34 100 E7        29.61S VSB 1/4 WCI  28
MAUSTON-NEW LI FOG       35  35 100 CALM      29.61F VSB 1/4
VIROQUA        CLOUDY    34  34 100 E6        29.57F VSB 1/4 WCI  29
WIS DELLS      FOG       35  35  99 E5        29.61F VSB 3/4 WCI  31
$$

...ELSEWHERE IN WISCONSIN...


CITY           SKY/WX    TMP DP  RH WIND       PRES   REMARKS
MILWAUKEE      FOG       38  37  97 E3        29.65S VSB 1/4
MADISON        FOG       35  35 100 CALM      29.62F VSB 1/4
GREEN BAY      FOG       35  35 100 SE3       29.68R VSB 1/2
EAU CLAIRE     NOT AVBL
BLACK RVR FLS  CLOUDY    36  36 100 SE3       29.60S FOG
MEDFORD        CLOUDY    32  32  99 SE5       29.60F FOG     WCI  28
WAUSAU         CLOUDY    33  33 100 E7        29.62R FOG     WCI  27
WIS RAPIDS     CLOUDY    34  34 100 E6        29.63S FOG     WCI  29
MARSHFIELD     FOG       33  33 100 E6        29.60S VSB 1/2 WCI  28
RICE LAKE      FOG       34  34  99 SE7       29.60S VSB 1/2 WCI  28
$$

...NORTHEAST IOWA...


CITY           SKY/WX    TMP DP  RH WIND       PRES   REMARKS
WATERLOO       FOG       36  36 100 E7        29.52F VSB 1/4 WCI  30
DUBUQUE        FOG       37  37 100 NE3       29.56F VSB 1/4
DECORAH        FOG       36  36 100 SE8       29.54R VSB 1/4 WCI  29
MASON CITY     FOG       34  34 100 SE9       29.51F VSB 1/4 WCI  27
CHARLES CITY   FOG       36  36 100 E9        29.53F VSB<1/4 WCI  29
OELWEIN        FOG       36  36 100 E10       29.53F VSB 1/4 WCI  28
$$

...ELSEWHERE IN IOWA...


CITY           SKY/WX    TMP DP  RH WIND       PRES   REMARKS
DES MOINES     LGT RAIN  42  41  96 E6        29.45F VSB 1/4
IOWA CITY      FOG       42  42 100 SE6       29.55F VSB 1/2
FORT DODGE     CLOUDY    36  34  93 E10       29.47F WCI  28
MARSHALLTOWN   LGT RAIN  37  37 100 E12       29.47F VSB 3/4 WCI  29
CEDAR RAPIDS   FOG       38  38 100 E10       29.52S VSB 1/2 WCI  31
$$

...NORTHERN ILLINOIS...


CITY           SKY/WX    TMP DP  RH WIND       PRES   REMARKS
CHICAGO-OHARE  DRIZZLE   42  42 100 SE3       29.62S FOG
CHICAGO-MIDWAY CLOUDY    45  44  97 CALM      29.63F FOG
MOLINE         FOG       42  40  92 E6        29.55F VSB 1/2
ROCKFORD       LGT RAIN  41  40  96 SE6       29.61F VSB 1/4
PEORIA         MOCLDY    49  48  97 SE6       29.57F FOG
$$

NOTE: "FAIR" INDICATES FEW OR NO CLOUDS BELOW 12,000 FEET WITH NO
SIGNIFICANT WEATHER AND/OR OBSTRUCTIONS TO VISIBILITY. WIND
SPEEDS ARE IN MILES-PER-HOUR.




USA.gov is the U.S. government's official web portal to all federal, state and local government web resources and services.